When you browse on this site, cookies collect data to enhance your experience and personalize the content and advertising you see.
Visit our Privacy Policy to learn more. By continuing to use the site, you agree to this use of cookies and data.
  • In Austria
  • List of Countries
  • For 7 days
  • Water Temperature
  • Satellite Maps
  • Weather Map
  • News
  • Weather Widgets
  • user-avatar
    Login

    Hourly Weather Ronchamp

    Today, 21 April, Sunday

    Time Temperature Precipitation Wind Pressure Humidity
    00:00 +10°C° 0 mm 2 mps 729 mmHg 78%
    01:00 +10°C° 0 mm 2 mps 729 mmHg 78%
    02:00 +9°C° 0 mm 2 mps 729 mmHg 78%
    03:00 +9°C° 0 mm 2 mps 728 mmHg 78%
    04:00 +9°C° 0 mm 2 mps 728 mmHg 78%
    05:00 +11°C° 0 mm 1 mps 728 mmHg 77%
    06:00 +11°C° 0 mm 1 mps 728 mmHg 76%
    07:00 +13°C° 0 mm 2 mps 728 mmHg 69%
    08:00 +15°C° 0 mm 2 mps 727 mmHg 62%
    09:00 +17°C° 0 mm 2 mps 727 mmHg 55%
    10:00 +18°C° 0 mm 2 mps 727 mmHg 51%
    11:00 +20°C° 0 mm 2 mps 726 mmHg 46%
    12:00 +21°C° 0 mm 2 mps 726 mmHg 42%
    13:00 +21°C° 0 mm 2 mps 726 mmHg 42%
    14:00 +21°C° 0 mm 2 mps 725 mmHg 42%
    15:00 +21°C° 0 mm 2 mps 725 mmHg 42%
    16:00 +21°C° 0 mm 1 mps 725 mmHg 50%
    17:00 +19°C° 0 mm 1 mps 724 mmHg 59%
    18:00 +15°C° 0 mm 0 mps 724 mmHg 67%
    19:00 +14°C° 0 mm 0 mps 724 mmHg 69%
    20:00 +13°C° 0 mm 0 mps 724 mmHg 71%
    21:00 +12°C° 0 mm 0 mps 724 mmHg 73%
    22:00 +11°C° 0 mm 0 mps 724 mmHg 75%
    23:00 +11°C° 0 mm 0 mps 723 mmHg 77%

    Tomorrow, 22 April, Monday

    Time Temperature Precipitation Wind Pressure Humidity
    00:00 +10°C° 0 mm 0 mps 723 mmHg 79%
    01:00 +10°C° 0 mm 0 mps 723 mmHg 80%
    02:00 +10°C° 0 mm 1 mps 722 mmHg 82%
    03:00 +10°C° 0 mm 1 mps 722 mmHg 84%
    04:00 +11°C° 0 mm 1 mps 721 mmHg 83%
    05:00 +11°C° 0 mm 1 mps 721 mmHg 82%
    06:00 +12°C° 0 mm 1 mps 720 mmHg 80%
    07:00 +14°C° 0 mm 1 mps 720 mmHg 73%
    08:00 +18°C° 0 mm 1 mps 720 mmHg 65%
    09:00 +19°C° 0 mm 2 mps 719 mmHg 57%
    10:00 +20°C° 0 mm 2 mps 719 mmHg 52%
    11:00 +21°C° 0 mm 2 mps 718 mmHg 48%
    12:00 +21°C° 0 mm 2 mps 718 mmHg 43%
    13:00 +22°C° 0 mm 3 mps 717 mmHg 43%
    14:00 +22°C° 0 mm 3 mps 716 mmHg 43%
    15:00 +22°C° 0 mm 3 mps 715 mmHg 43%
    16:00 +20°C° 0 mm 2 mps 715 mmHg 51%
    17:00 +18°C° 0 mm 2 mps 714 mmHg 60%
    18:00 +18°C° 0 mm 1 mps 714 mmHg 68%
    19:00 +15°C° 0 mm 1 mps 714 mmHg 72%
    20:00 +14°C° 0 mm 2 mps 713 mmHg 76%
    21:00 +13°C° 0 mm 2 mps 713 mmHg 79%
    22:00 +13°C° 0 mm 2 mps 713 mmHg 82%
    23:00 +12°C° 0 mm 2 mps 713 mmHg 85%

    Day after tomorrow, 23 April, Tuesday

    Time Temperature Precipitation Wind Pressure Humidity
    00:00 +12°C° 0 mm 1 mps 712 mmHg 89%
    01:00 +12°C° 0 mm 1 mps 712 mmHg 89%
    02:00 +11°C° 0 mm 1 mps 712 mmHg 90%
    03:00 +11°C° 0 mm 1 mps 712 mmHg 90%
    04:00 +12°C° 0 mm 1 mps 712 mmHg 88%
    05:00 +12°C° 0 mm 1 mps 712 mmHg 85%
    06:00 +13°C° 0 mm 1 mps 712 mmHg 83%
    07:00 +14°C° 0 mm 1 mps 712 mmHg 78%
    08:00 +16°C° 0 mm 1 mps 712 mmHg 74%
    09:00 +17°C° 0 mm 2 mps 712 mmHg 69%
    10:00 +18°C° 0 mm 2 mps 712 mmHg 66%
    11:00 +19°C° 0 mm 2 mps 712 mmHg 63%
    12:00 +20°C° 0 mm 2 mps 712 mmHg 60%
    13:00 +21°C° 0.1 mm 2 mps 712 mmHg 60%
    14:00 +21°C° 0.1 mm 2 mps 711 mmHg 60%
    15:00 +21°C° 0.1 mm 2 mps 711 mmHg 60%
    16:00 +19°C° 0.5 mm 2 mps 711 mmHg 70%
    17:00 +19°C° 0.5 mm 1 mps 712 mmHg 79%
    18:00 +16°C° 0.5 mm 1 mps 712 mmHg 88%
    19:00 +15°C° 0.6 mm 1 mps 712 mmHg 90%
    20:00 +14°C° 0.6 mm 1 mps 713 mmHg 92%
    21:00 +14°C° 0.6 mm 1 mps 713 mmHg 94%
    22:00 +13°C° 0.1 mm 1 mps 714 mmHg 94%
    23:00 +12°C° 0.1 mm 1 mps 714 mmHg 94%

    24 April, Wednesday

    Time Temperature Precipitation Wind Pressure Humidity
    00:00 +12°C° 0.1 mm 1 mps 714 mmHg 94%
    01:00 +11°C° 0 mm 1 mps 715 mmHg 94%
    02:00 +9°C° 0 mm 0 mps 715 mmHg 94%
    03:00 +9°C° 0 mm 0 mps 715 mmHg 94%
    04:00 +11°C° 0 mm 1 mps 716 mmHg 93%
    05:00 +11°C° 0 mm 1 mps 716 mmHg 92%
    06:00 +12°C° 0 mm 1 mps 716 mmHg 91%
    07:00 +14°C° 0 mm 1 mps 717 mmHg 80%
    08:00 +16°C° 0 mm 2 mps 717 mmHg 69%
    09:00 +18°C° 0 mm 2 mps 717 mmHg 58%
    10:00 +19°C° 0.1 mm 2 mps 718 mmHg 59%
    11:00 +19°C° 0.1 mm 2 mps 718 mmHg 61%
    12:00 +19°C° 0.1 mm 2 mps 718 mmHg 62%
    13:00 +17°C° 0.7 mm 3 mps 717 mmHg 72%
    14:00 +14°C° 0.7 mm 3 mps 717 mmHg 81%
    15:00 +12°C° 0.7 mm 4 mps 717 mmHg 91%
    16:00 +11°C° 2 mm 4 mps 718 mmHg 93%
    17:00 +10°C° 2 mm 4 mps 718 mmHg 94%
    18:00 +9°C° 2 mm 3 mps 719 mmHg 96%
    19:00 +9°C° 0.3 mm 3 mps 720 mmHg 95%
    20:00 +8°C° 0.3 mm 2 mps 720 mmHg 94%
    21:00 +9°C° 0.3 mm 1 mps 721 mmHg 94%
    22:00 +8°C° 0 mm 1 mps 721 mmHg 94%
    23:00 +8°C° 0 mm 1 mps 721 mmHg 94%

    25 April, Thursday

    Time Temperature Precipitation Wind Pressure Humidity
    00:00 +7°C° 0 mm 1 mps 721 mmHg 94%
    01:00 +7°C° 0 mm 1 mps 721 mmHg 94%
    02:00 +7°C° 0 mm 1 mps 721 mmHg 95%
    03:00 +6°C° 0 mm 2 mps 721 mmHg 95%
    04:00 +7°C° 0 mm 2 mps 721 mmHg 94%
    05:00 +8°C° 0 mm 2 mps 721 mmHg 93%
    06:00 +9°C° 0 mm 2 mps 721 mmHg 93%
    07:00 +12°C° 0 mm 1 mps 721 mmHg 83%
    08:00 +15°C° 0 mm 1 mps 721 mmHg 74%
    09:00 +19°C° 0 mm 1 mps 721 mmHg 65%
    10:00 +20°C° 0 mm 1 mps 721 mmHg 55%
    11:00 +20°C° 0 mm 2 mps 721 mmHg 46%
    12:00 +21°C° 0 mm 3 mps 721 mmHg 36%
    13:00 +21°C° 0 mm 3 mps 721 mmHg 37%
    14:00 +21°C° 0 mm 4 mps 721 mmHg 38%
    15:00 +21°C° 0 mm 4 mps 721 mmHg 38%
    16:00 +18°C° 0 mm 4 mps 721 mmHg 54%
    17:00 +14°C° 0 mm 4 mps 721 mmHg 70%
    18:00 +11°C° 0 mm 4 mps 721 mmHg 86%
    19:00 +10°C° 0.7 mm 3 mps 722 mmHg 90%
    20:00 +8°C° 0.7 mm 3 mps 723 mmHg 93%
    21:00 +7°C° 0.7 mm 3 mps 724 mmHg 97%
    22:00 +7°C° 0.9 mm 3 mps 725 mmHg 97%
    23:00 +6°C° 0.9 mm 4 mps 725 mmHg 96%

    26 April, Friday

    Time Temperature Precipitation Wind Pressure Humidity
    00:00 +6°C° 0.9 mm 4 mps 726 mmHg 96%
    01:00 +5°C° 0.1 mm 3 mps 726 mmHg 96%
    02:00 +5°C° 0.1 mm 3 mps 727 mmHg 95%
    03:00 +6°C° 0.1 mm 2 mps 727 mmHg 95%
    04:00 +5°C° 0.1 mm 3 mps 727 mmHg 94%
    05:00 +5°C° 0.1 mm 3 mps 728 mmHg 93%
    06:00 +5°C° 0.1 mm 3 mps 729 mmHg 92%
    07:00 +6°C° 0.3 mm 4 mps 729 mmHg 89%
    08:00 +7°C° 0.3 mm 5 mps 729 mmHg 85%
    09:00 +8°C° 0.3 mm 5 mps 730 mmHg 81%
    10:00 +9°C° 0.2 mm 5 mps 730 mmHg 73%
    11:00 +10°C° 0.2 mm 5 mps 730 mmHg 66%
    12:00 +12°C° 0.2 mm 5 mps 730 mmHg 58%
    13:00 +12°C° 0.1 mm 5 mps 730 mmHg 57%
    14:00 +12°C° 0.1 mm 4 mps 731 mmHg 55%
    15:00 +12°C° 0.1 mm 4 mps 731 mmHg 54%
    16:00 +11°C° 0 mm 3 mps 731 mmHg 62%
    17:00 +10°C° 0 mm 2 mps 731 mmHg 69%
    18:00 +10°C° 0 mm 1 mps 731 mmHg 77%
    19:00 +9°C° 0 mm 1 mps 731 mmHg 80%
    20:00 +8°C° 0 mm 1 mps 731 mmHg 84%
    21:00 +6°C° 0 mm 1 mps 732 mmHg 87%
    22:00 +6°C° 0 mm 1 mps 731 mmHg 88%
    23:00 +6°C° 0 mm 1 mps 731 mmHg 88%
    Show more